Regional Weather Roundup
Issued by NWS

Home | Current Version | Previous Version | Graphics & Text | Print | Product List | Glossary On
Versions: 1 2 3 4 5 6 7 8 9 10 11 12 13 14 15 16 17 18 19 20 21 22 23 24 25 26 27 28 29 30 31 32 33 34 35 36 37 38 39 40 41 42 43 44 45 46 47 48 49 50
000
ASUS45 KTFX 281304
RWRMT
MONTANA HOURLY WEATHER ROUNDUP
NATIONAL WEATHER SERVICE GREAT FALLS MT
704 AM MDT SAT MAR 28 2015

NOTE: "FAIR" INDICATES FEW OR NO CLOUDS BELOW 12000 FEET WITH NO
SIGNIFICANT WEATHER AND/OR OBSTRUCTIONS TO VISIBILITY.

* THESE STATIONS ARE NOT UNDER NWS QUALITY CONTROL. THEY DO NOT
   REPORT WEATHER SUCH AS PRECIPITATION OR FOG.

MTZ001>007-043-281400-
WEST OF THE DIVIDE
CITY           SKY/WX    TMP DP  RH WIND       PRES   REMARKS
KALISPELL      CLOUDY    45  43  93 NW5       29.80R
MISSOULA       CLOUDY    48  43  83 N9        29.89R
BUTTE          FAIR      30  27  89 E5        29.88F WCI  25
MULLAN PASS    LGT SNOW  32  32 100 VRB7      29.90R VSB 3/4  WCI  25
* ESSEX        N/A       40  39  96 W1         N/A
* LINCOLN      N/A       29  27  92 E1         N/A
* LOOKOUT PASS N/A       39  37  93 SE6G12     N/A   WCI  35
* POLSON       N/A       46  45  96 NW3G9      N/A
* SEELEY LAKE  N/A       31  29  92 NE2        N/A
* THOMP F APT  CLOUDY    39  28  65 NE6        N/A   WCI  35
* YAAK HILL    N/A       48  45  89 E1         N/A
$$

MTZ008-052>055-281400-
SOUTHWEST MONTANA
CITY           SKY/WX    TMP DP  RH WIND       PRES   REMARKS
BOZEMAN        CLEAR     36  28  73 E7        29.84F WCI  30
DILLON         CLEAR     46  28  50 CALM      29.87F
* W YELLOWSTON PTCLDY    26  25  96 SE1        N/A
* BOULDER HILL N/A       40  25  55 S11G16     N/A   WCI  33
* HOMESTAKE PS N/A       40  27  60 NW1        N/A
* MONIDA PASS  N/A       40  29  65 SE18G23    N/A   WCI  31
* RAYNOLDS PAS N/A       36  19  50 SE10       N/A   WCI  29
* WHITEHALL    N/A       47  32  56 W2G9       N/A
* WISE RIVER   N/A       29  27  92 SW5        N/A   WCI  24
$$

MTZ009>010-012-014-046-048-049-054-281400-
EAST SLOPES AND CENTRAL MONTANA
CITY           SKY/WX    TMP DP  RH WIND       PRES   REMARKS
CUT BANK       MOCLDY    46  39  77 W9        29.66F
GREAT FALLS    PTCLDY    48  32  54 SW12      29.68F
HELENA         MOCLDY    39  34  82 W7        29.76F WCI  34
MALMSTROM AFB  PTCLDY    55  32  42 SW18      29.68F
* DEARBORN     N/A       49  34  56 S3         N/A
* EAST GLACIER N/A       46  39  77 W12G21     N/A
* MONARCH      N/A       52  26  36 S9G16      N/A
* PENDROY      N/A       51  33  50 SW2G8      N/A
* ROGERS PASS  N/A       49  31  50 SE11G19    N/A
* SAINT MARY   N/A       47  38  71 S9G19      N/A
$$

MTZ011-013-016-021-035-040-045-047-050-051-281400-
NORTH CENTRAL MONTANA
CITY           SKY/WX    TMP DP  RH WIND       PRES   REMARKS
HAVRE          CLOUDY    43  34  71 CALM      29.63F
LEWISTOWN      PTCLDY    54  34  47 SW17      29.75F
* CHESTER      N/A       41  33  73 SE1        N/A
* DENTON       N/A       53  34  49 S20        N/A
* GEYSER       N/A       49  30  48 SE4        N/A
* JUDITH GAP   N/A       44  31  60 S5         N/A
* LOMA         N/A       41  34  76 NE6        N/A
$$

MTZ017>020-022>027-061-062-281400-
NORTHEAST MONTANA
CITY           SKY/WX    TMP DP  RH WIND       PRES   REMARKS
GLASGOW        CLEAR     37  32  82 E12       29.69F WCI  29
GLENDIVE       CLEAR     37  32  82 S10       29.79F WCI  30
JORDAN         PTCLDY    32  28  85 CALM      29.73F
SIDNEY         CLEAR     34  30  85 CALM      29.78F
WOLF POINT     PTCLDY    34  30  85 NE7       29.72F WCI  28
* BEAVER HILL  N/A       45  34  65 S17        N/A
* CIRCLE       N/A       45  35  68 N/A        N/A
* LINDSAY DVD  N/A       40  34  79 S6         N/A   WCI  36
* NAVAJO       N/A       36  33  89 S14        N/A   WCI  27
* SACO         N/A       36  33  89 E11        N/A   WCI  28
$$

MTZ028>042-056>058-281400-
SOUTHCENTRAL AND SOUTHEAST MONTANA
CITY           SKY/WX    TMP DP  RH WIND       PRES   REMARKS
BAKER          CLEAR     39  34  82 SE7       29.83F WCI  34
BILLINGS       FAIR      50  32  50 SW15      29.82F
LIVINGSTON     CLEAR     59  28  31 SW25G38   29.81F
MILES CITY     CLEAR     39  30  70 S9        29.79F WCI  33
* ALZADA       N/A       38  30  73 E4         N/A
* HYSHAM       N/A       54  27  35 W4G12      N/A
* LAME DEER    N/A       55  30  39 SW7        N/A
* REED POINT   N/A       34  33  96 SW1        N/A
* ROSCOE HILL  N/A       58  18  21 SW10G27    N/A
$$

REGIONAL REPORTS...DAKOTAS
CITY           SKY/WX    TMP DP  RH WIND       PRES   REMARKS
WILLISTON      CLEAR     37  34  89 S5        29.78F WCI  33
DICKINSON      CLEAR     37  32  82 S15       29.83F WCI  28
CROSBY         CLEAR     36  36 100 S15       29.76F WCI  27
WATFORD CITY   CLEAR     32  32 100 SE9       29.78F WCI  24
BISMARCK       FOG       28  28 100 SE13      29.97S VSB M1/4 WCI  17
GRAND FORKS    PTCLDY    23  18  81 S10       30.09S WCI  13
FARGO          PTCLDY    27  19  72 SE15      30.12S WCI  15
BUFFALO SD     CLEAR     37  32  82 S6        29.82F WCI  32
RAPID CITY     CLEAR     37  30  76 SE3       29.92S
$$

REGIONAL REPORTS...WYOMING/IDAHO/WASHINGTON
CITY           SKY/WX    TMP DP  RH WIND       PRES   REMARKS
GILLETTE       CLEAR     48  30  50 S6        29.91S
SHERIDAN       CLEAR     57  30  36 W12       29.87F
CODY           CLEAR     57  30  36 S10G16    29.95F
YELLOWSTONE LA PTCLDY    25  21  85 CALM      30.14S
SALMON         MOCLDY    37  32  82 SE6       29.90F WCI  32
MULLAN PASS    LGT SNOW  32  32 100 VRB7      29.90S VSB 3/4  WCI  25
SAND POINT     RAIN      46  46 100 SW8       29.87R
SPOKANE        CLOUDY    45  36  71 SW29G38   29.91R

$$



USA.gov is the U.S. government's official web portal to all federal, state and local government web resources and services.